CW4740 Weather Reports


time (UTC)temp
C
wind
direction
speed
KPH
gust
KPH
rain 1hr
cm
rain 24hr
cm
rain mn
cm
humidity
%
barometer
mb
20260504230147 25 82 14.5 22.5 0.00 0.58 0.58 78 1014.3
20260504225636 25 52 9.7 20.9 0.00 0.58 0.58 78 1014.3
20260504225214 25 80 11.3 27.4 0.00 0.58 0.58 78 1014.3
20260504224749 25 94 9.7 27.4 0.00 0.58 0.58 77 1014.2
20260504224646 25 94 9.7 27.4 0.00 0.58 0.58 77 1014.2
20260504224142 25 78 11.3 20.9 0.00 0.58 0.58 77 1014.2
20260504223639 25 67 11.3 24.1 0.00 0.58 0.58 77 1014.2
20260504223137 25 84 11.3 24.1 0.00 0.58 0.58 77 1014.2
20260504222634 25 30 9.7 20.9 0.00 0.58 0.58 77 1014.3
20260504222135 25 55 12.9 20.9 0.00 0.58 0.58 77 1014.3
20260504221729 25 71 12.9 24.1 0.00 0.58 0.58 77 1014.4
20260504221128 25 82 9.7 24.1 0.00 0.58 0.58 77 1014.3
20260504220640 25 48 9.7 25.7 0.00 0.58 0.58 77 1014.4
20260504220218 25 83 11.3 25.7 0.00 0.69 0.58 77 1014.4
20260504220135 25 83 11.3 25.7 0.00 0.69 0.58 77 1014.4
20260504215702 25 92 12.9 24.1 0.00 0.69 0.58 77 1014.3
20260504215240 25 53 8.0 24.1 0.00 0.69 0.58 78 1014.3
20260504214715 25 88 9.7 22.5 0.00 0.69 0.58 78 1014.1
20260504214213 25 55 14.5 24.1 0.00 0.69 0.58 77 1014.1
20260504213749 25 57 11.3 24.1 0.00 0.69 0.58 77 1014.2
20260504213706 25 57 11.3 24.1 0.00 0.69 0.58 77 1014.2
20260504213204 25 111 11.3 22.5 0.00 0.69 0.58 77 1014.2
20260504212720 25 77 11.3 22.5 0.00 0.69 0.58 78 1014.2
20260504212216 25 101 14.5 22.5 0.00 0.69 0.58 77 1014.3
20260504211631 25 91 12.9 25.7 0.00 0.69 0.58 77 1014.3
20260504211208 25 96 9.7 25.7 0.00 0.69 0.58 78 1014.3
20260504210645 25 84 11.3 27.4 0.00 0.69 0.58 77 1014.4
20260504210201 25 83 9.7 27.4 0.00 0.76 0.58 77 1014.5
20260504205725 25 51 6.4 25.7 0.00 0.76 0.58 77 1014.5
20260504205220 25 42 11.3 25.7 0.00 0.76 0.58 77 1014.6
20260504204634 25 67 11.3 20.9 0.00 0.76 0.58 77 1014.5
20260504204152 25 65 12.9 27.4 0.00 0.76 0.58 77 1014.4
20260504203707 25 32 9.7 27.4 0.00 0.76 0.58 77 1014.4
20260504203202 25 96 12.9 24.1 0.00 0.76 0.58 76 1014.5
20260504202718 25 71 16.1 27.4 0.00 0.76 0.58 76 1014.5
20260504202134 25 78 14.5 27.4 0.00 0.76 0.58 76 1014.6
20260504201631 25 80 12.9 24.1 0.00 0.76 0.58 77 1014.6
20260504201149 25 96 11.3 27.4 0.00 0.76 0.58 78 1014.7
20260504200645 25 87 16.1 27.4 0.00 0.76 0.58 77 1014.7
20260504200142 25 99 11.3 25.7 0.00 0.79 0.58 77 1014.8
20260504195730 25 56 12.9 27.4 0.00 0.79 0.58 77 1014.8
20260504195647 25 56 12.9 27.4 0.00 0.79 0.58 77 1014.8
20260504195202 25 92 14.5 27.4 0.00 0.79 0.58 76 1015.0
20260504194658 25 70 16.1 27.4 0.00 0.79 0.58 76 1014.9
20260504194214 25 81 16.1 25.7 0.00 0.79 0.58 76 1015.0
20260504194131 25 81 16.1 25.7 0.00 0.79 0.58 76 1015.0
20260504193728 26 53 12.9 27.4 0.00 0.79 0.58 77 1015.1
20260504193646 26 53 12.9 27.4 0.00 0.79 0.58 77 1015.1
20260504193144 26 81 12.9 27.4 0.00 0.79 0.58 76 1015.1
20260504192742 26 78 16.1 27.4 0.00 0.79 0.58 76 1015.1
20260504192135 26 76 12.9 29.0 0.00 0.79 0.58 76 1015.2
20260504191714 26 94 12.9 29.0 0.00 0.79 0.58 75 1015.3
20260504191210 26 10 14.5 27.4 0.00 0.79 0.58 75 1015.3
20260504190646 26 98 16.1 27.4 0.00 0.79 0.58 74 1015.4
20260504190203 26 77 12.9 25.7 0.00 0.79 0.58 76 1015.3
20260504185713 26 90 14.5 25.7 0.00 0.79 0.58 75 1015.4
20260504185144 26 63 11.3 29.0 0.00 0.79 0.58 76 1015.3
20260504184645 26 115 17.7 29.0 0.00 0.79 0.58 76 1015.3
20260504184238 26 62 17.7 35.4 0.00 0.79 0.58 76 1015.3
20260504184156 26 62 17.7 35.4 0.00 0.79 0.58 76 1015.3
20260504183631 26 92 12.9 35.4 0.00 0.79 0.58 77 1015.3
20260504183132 26 59 16.1 29.0 0.00 0.79 0.58 76 1015.4
20260504182628 26 107 14.5 30.6 0.00 0.79 0.58 76 1015.4
20260504182145 26 94 17.7 30.6 0.00 0.79 0.58 76 1015.5
20260504181642 26 38 9.7 30.6 0.00 0.79 0.58 79 1015.4
20260504181238 25 77 12.9 30.6 0.00 0.79 0.58 78 1015.5
20260504181156 25 77 12.9 30.6 0.00 0.79 0.58 78 1015.5
20260504180652 26 66 16.1 27.4 0.00 0.79 0.58 77 1015.6
20260504180131 26 142 14.5 27.4 0.00 0.89 0.58 76 1015.6
20260504175640 26 49 9.7 27.4 0.00 0.89 0.58 77 1015.6
20260504175218 26 88 9.7 27.4 0.00 0.89 0.58 79 1015.6
20260504174634 26 86 14.5 27.4 0.00 0.89 0.58 78 1015.6
20260504174132 26 90 17.7 25.7 0.00 0.89 0.58 78 1015.7
20260504173746 26 61 14.5 33.8 0.00 0.89 0.58 79 1015.8
20260504173643 26 61 14.5 33.8 0.00 0.89 0.58 79 1015.8
20260504173222 25 84 11.3 33.8 0.00 0.89 0.58 80 1015.8
20260504172658 25 320 17.7 32.2 0.00 0.89 0.58 80 1015.8
20260504172135 25 105 14.5 27.4 0.00 0.89 0.58 80 1015.8
20260504171652 25 92 14.5 27.4 0.00 0.89 0.58 81 1015.8
20260504171247 25 79 9.7 29.0 0.00 0.89 0.58 81 1015.9
20260504170641 24 90 11.3 29.0 0.00 0.89 0.58 81 1016.0
20260504170157 24 74 11.3 24.1 0.00 0.89 0.58 82 1016.2
20260504160142 25 87 8.0 27.4 0.05 0.89 0.58 88 1016.4
20260504151141 22 58 14.5 25.7 0.18 0.89 0.58 91 1016.5
20260504150637 22 355 9.7 27.4 0.15 0.86 0.56 91 1016.7
20260504150213 23 24 11.3 29.0 0.13 0.84 0.53 88 1016.8
20260504141227 24 72 9.7 20.9 0.10 0.71 0.41 88 1015.8
20260504140703 24 67 6.4 25.7 0.10 0.71 0.41 90 1015.7
20260504140200 23 73 9.7 14.5 0.10 0.71 0.41 90 1015.7
20260504130643 24 98 8.0 17.7 0.00 0.61 0.30 92 1015.3
20260504130200 23 78 8.0 19.3 0.00 1.07 0.30 93 1015.2
20260504120202 22 336 4.8 9.7 0.00 1.09 0.30 97 1014.5
20260504110658 22 336 1.6 3.2 0.15 1.09 0.30 96 1014.0
20260504110136 22 336 1.6 3.2 0.18 1.09 0.30 96 1013.8
20260504100207 22 339 3.2 8.0 0.03 0.91 0.13 96 1013.7
20260504081631 22 350 6.4 20.9 0.08 0.89 0.10 93 1012.9
20260504081149 23 96 4.8 9.7 0.08 0.89 0.10 95 1012.8
20260504080646 23 96 0.0 4.8 0.05 0.86 0.08 95 1012.9
20260504080204 23 96 1.6 4.8 0.05 0.86 0.08 94 1013.0
20260504070138 23 96 3.2 9.7 0.00 0.81 0.03 93 1013.7
20260504060131 23 96 0.0 0.0 0.03 0.81 0.03 91 1014.3
20260504050658 24 96 0.0 0.0 0.00 0.79 0.00 88 1015.0
20260504050155 24 96 0.0 4.8 0.00 0.79 0.00 88 1015.1
20260504045642 24 96 0.0 6.4 0.00 0.79 0.00 88 1015.1
20260504045201 24 96 1.6 6.4 0.00 0.79 0.00 88 1015.1
20260504044638 24 96 1.6 9.7 0.00 0.79 0.00 88 1014.9
20260504044156 24 96 3.2 9.7 0.00 0.79 0.00 88 1014.8
20260504043654 24 96 3.2 9.7 0.00 0.79 0.00 88 1014.9
20260504043150 24 96 4.8 14.5 0.00 0.79 0.00 88 1014.9
20260504042632 24 96 3.2 14.5 0.00 0.79 0.00 88 1014.8
20260504042128 24 82 4.8 8.0 0.00 0.79 0.00 88 1014.9
20260504041720 24 82 3.2 8.0 0.00 0.79 0.00 88 1015.1
20260504041139 23 82 4.8 8.0 0.00 0.79 0.00 89 1015.2
20260504040655 23 82 3.2 9.7 0.00 0.79 0.00 89 1015.5
20260504040132 23 82 1.6 6.4 0.00 0.79 0.79 89 1015.4
20260504035640 23 82 0.0 6.4 0.00 0.79 0.79 89 1015.7
20260504035217 23 82 0.0 6.4 0.00 0.79 0.79 89 1015.4
20260504034633 23 82 0.0 8.0 0.00 0.79 0.79 89 1015.4
20260504034131 23 82 3.2 9.7 0.00 0.79 0.79 89 1015.4
20260504033628 23 82 1.6 9.7 0.00 0.79 0.79 89 1015.5
20260504033207 23 82 3.2 14.5 0.00 0.79 0.79 89 1015.4
20260504032704 23 82 4.8 14.5 0.00 0.79 0.79 89 1015.5
20260504032241 23 78 4.8 12.9 0.00 0.79 0.79 90 1015.7
20260504032138 23 78 4.8 12.9 0.00 0.79 0.79 90 1015.7
20260504031633 23 46 6.4 9.7 0.00 0.79 0.79 90 1015.5
20260504031225 23 69 0.0 11.3 0.00 0.79 0.79 90 1015.6
20260504030640 23 55 3.2 14.5 0.00 0.79 0.79 90 1015.6
20260504030141 23 81 1.6 12.9 0.00 0.79 0.79 90 1015.5
20260504025649 23 82 6.4 12.9 0.00 0.79 0.79 90 1015.5
20260504025146 23 82 4.8 12.9 0.00 0.79 0.79 90 1015.7
20260504024720 23 82 3.2 8.0 0.00 0.79 0.79 90 1016.0
20260504024140 23 82 1.6 8.0 0.00 0.79 0.79 90 1015.9
20260504023637 23 82 3.2 14.5 0.00 0.79 0.79 90 1015.9
20260504023155 23 83 1.6 14.5 0.00 0.79 0.79 90 1015.6
20260504022728 23 65 4.8 14.5 0.00 0.79 0.79 90 1015.4
20260504022244 23 39 4.8 11.3 0.00 0.79 0.79 90 1015.6
20260504021719 23 24 4.8 16.1 0.00 0.79 0.79 90 1015.8
20260504021637 23 24 4.8 16.1 0.00 0.79 0.79 90 1015.8
20260504021135 23 34 4.8 16.1 0.00 0.79 0.79 89 1015.6
20260504020651 23 70 4.8 17.7 0.00 0.79 0.79 89 1015.6
20260504020227 23 65 6.4 17.7 0.00 0.79 0.79 89 1015.9
20260504015633 23 16 3.2 12.9 0.00 0.79 0.79 89 1015.9
20260504015210 23 80 3.2 12.9 0.00 0.79 0.79 89 1015.9
20260504014706 23 80 3.2 14.5 0.00 0.79 0.79 89 1015.7
20260504014242 23 81 6.4 14.5 0.00 0.79 0.79 89 1015.5
20260504013638 23 82 4.8 12.9 0.00 0.79 0.79 90 1015.6
20260504013215 23 74 3.2 8.0 0.00 0.79 0.79 90 1015.6
20260504012631 23 66 3.2 8.0 0.00 0.79 0.79 90 1015.5
20260504012128 23 63 1.6 16.1 0.00 0.79 0.79 90 1015.6
20260504011707 23 13 3.2 16.1 0.00 0.79 0.79 90 1015.6
20260504011223 23 22 4.8 9.7 0.00 0.79 0.79 90 1015.5
20260504010738 23 5 3.2 12.9 0.00 0.79 0.79 90 1015.5
20260504010656 23 5 3.2 12.9 0.00 0.79 0.79 90 1015.5
20260504010132 23 5 3.2 12.9 0.00 0.79 0.79 90 1015.5
20260504005700 23 12 4.8 9.7 0.00 0.79 0.79 90 1015.4
20260504005136 23 13 3.2 14.5 0.00 0.79 0.79 90 1015.3
20260504004715 23 37 3.2 14.5 0.00 0.79 0.79 89 1015.3
20260504004131 23 60 0.0 14.5 0.00 0.79 0.79 89 1015.2
20260504003628 23 5 4.8 14.5 0.00 0.79 0.79 89 1015.1
20260504003145 23 21 4.8 11.3 0.00 0.79 0.79 89 1015.0
20260504002642 23 70 3.2 14.5 0.00 0.79 0.79 89 1015.0
20260504002200 23 86 6.4 16.1 0.00 0.79 0.79 89 1014.7
20260504001637 23 24 6.4 17.7 0.00 0.79 0.79 90 1014.7
20260504001214 23 355 8.0 17.7 0.00 0.79 0.79 90 1014.8
20260504000630 23 46 4.8 16.1 0.00 0.79 0.79 90 1014.8
20260504000128 23 40 3.2 12.9 0.00 0.79 0.79 90 1014.7
20260503235637 23 32 3.2 16.1 0.00 0.79 0.79 91 1014.7
20260503235235 23 66 6.4 16.1 0.00 0.79 0.79 91 1014.7
20260503235152 23 66 6.4 16.1 0.00 0.79 0.79 91 1014.7
20260503234629 23 30 8.0 17.7 0.00 0.79 0.79 91 1014.6
20260503234207 23 24 9.7 17.7 0.00 0.79 0.79 91 1014.5
20260503233744 23 339 6.4 17.7 0.00 0.79 0.79 92 1014.5
20260503233701 23 339 6.4 17.7 0.00 0.79 0.79 92 1014.5
20260503233140 23 56 4.8 14.5 0.00 0.79 0.79 92 1014.6
20260503232639 23 33 6.4 20.9 0.00 0.79 0.79 92 1014.7
20260503232217 23 42 8.0 20.9 0.00 0.79 0.79 92 1014.5
20260503231652 23 23 8.0 17.7 0.00 0.79 0.79 92 1014.5
20260503231128 23 46 6.4 19.3 0.00 0.79 0.79 92 1014.5
20260503230645 23 69 6.4 19.3 0.00 0.79 0.79 93 1014.5